Regional Weather Roundup
Issued by NWS

Home | Current Version | Previous Version | Graphics & Text | Print | Product List | Glossary Off
Versions: 1 2 3 4 5 6 7 8 9 10 11 12 13 14 15 16 17 18 19 20 21 22 23 24 25 26 27 28 29 30 31 32 33 34 35 36 37 38 39 40 41 42 43 44 45 46 47 48 49 50

320
ASUS43 KDTX 291710
RWRMI
MICHIGAN HOURLY REGIONAL WEATHER ROUNDUP
NATIONAL WEATHER SERVICE DETROIT/PONTIAC MI
100 PM EDT FRI JUL 29 2016

NOTE: "FAIR" INDICATES FEW OR NO CLOUDS BELOW 12,000 FEET WITH NO
SIGNIFICANT WEATHER AND/OR OBSTRUCTION TO VISIBILITY.

MIZ047>049-052>055-059>063-066>070-074>076-081>083-291800-
SOUTHEAST LOWER MICHIGAN

CITY           SKY/WX    TMP DP  RH WIND       PRES   REMARKS
ADRIAN         CLOUDY    83  66  56 VRB3      29.96F
ALMA           CLOUDY    72  65  78 N8        30.03S
ANN ARBOR      CLOUDY    85  66  53 NW5       29.95F
BAD AXE        MOSUNNY   74  57  55 NE9       30.04S
CARO           LGT RAIN  71  62  72 CALM      30.02R
DETROIT CITY   MOSUNNY   82  68  62 E10       29.96S
DETROIT        PTSUNNY   86  64  47 CALM      29.95F
FLINT          PTSUNNY   81  61  50 NE13G18   30.00R
GROSSE ILE     PTSUNNY   83  66  56 NE5       29.94S
HILLSDALE      RAIN      71  67  89 NW5       29.98F
HOWELL         PTSUNNY   79  63  57 NE7       29.98F

CITY           SKY/WX    TMP DP  RH WIND       PRES   REMARKS
JACKSON        CLOUDY    76  69  79 NW7       29.98F
LAMBERTVILLE   MOSUNNY   85  67  54 CALM      29.95F
LANSING        CLOUDY    74  63  68 NE5       30.00F
LAPEER         FAIR      76  61  59 NE10G17   30.01S
MASON          CLOUDY    77  65  66 N7        29.99S
MONROE         SUNNY     84  69  61 CALM      29.94S
MT. CLEMENS    CLOUDY    79  67  65 NE10      29.96R
PONTIAC        PTSUNNY   80  64  58 NE7       29.98S
PORT HOPE        N/A     71  62  73 NE16      30.02S
PORT HURON     MOSUNNY   73  64  73 NE9       29.99S
TRI CITIES     PTSUNNY   73  64  73 NE13      30.03R
MIDLAND        PTSUNNY   73  61  66 NE12G18   30.03R
TROY           PTSUNNY   82  64  53 NE8       29.99S
SAGINAW HB     CLOUDY    73  61  64 NE8       30.01S
$$
MIZ043>046-050>051-056>058-064>065-071>073-077>080-291800-
SOUTHWEST LOWER MICHIGAN

CITY           SKY/WX    TMP DP  RH WIND       PRES   REMARKS
BATTLE CREEK   LGT RAIN  69  68  96 NE3       29.99F
BENTON HARBOR  CLOUDY    78  66  66 E8        29.95F
BIG RAPIDS     CLOUDY    73  65  78 MISG      30.04R
COLDWATER      LGT RAIN  69  67  96 NE3       29.99S
FREMONT        FAIR      73  65  78 E6        30.01S
HOLLAND        CLOUDY    76  65  68 E9        29.99S
GRAND RAPIDS   CLOUDY    73  61  65 E10       30.01S
IONIA          CLOUDY    72  62  70 NE12      30.01S
KALAMAZOO      PTSUNNY   73  66  78 E3        29.98F
LUDINGTON      PTSUNNY   75  66  72 E3        30.01S
MARSHALL       LGT RAIN  70  69  95 CALM      29.99S
MOUNT PLEASANT CLOUDY    72  62  70 E8        30.03S
MUSKEGON       CLOUDY    73  66  78 E10       30.00S
SOUTH HAVEN    MOSUNNY   78  68  70 E7        29.97S
$$
MIZ016>042-291800-
NORTHERN LOWER MICHIGAN

CITY           SKY/WX    TMP DP  RH WIND       PRES   REMARKS
ALPENA         MOSUNNY   74  52  46 NE12G17   30.08R
BEAVER ISLAND  SUNNY     72  60  66 NE12      30.08S
BELLAIRE       PTSUNNY   79  52  38 NE9       30.04S
CADILLAC       CLOUDY    69  61  73 E7        30.05S
CHARLEVOIX     MOSUNNY   77  55  45 NE12      30.08F
FRANKFORT      SUNNY     77  60  54 SE8       30.03S
GAYLORD        PTSUNNY   76  51  41 MISG      30.07S
GRAYLING       PTSUNNY   76  53  43 NE8       30.06S
HARBOR SPRINGS PTSUNNY   75  57  53 NE7       30.06S
HOUGHTON LAKE  MOSUNNY   75  57  53 E12       30.06S
MANISTEE       CLOUDY    76  60  57 E9        30.02S
OSCODA         MOSUNNY   73  59  61 NE15      30.06R
PELLSTON       SUNNY     75  54  47 NE14      30.07S
ROGERS CITY    SUNNY     70  56  60 E9        30.10S
TRAVERSE CITY  PTSUNNY   78  58  49 N8        30.02F
$$
MIZ007>008-015-291800-
EASTERN UPPER MICHIGAN

CITY           SKY/WX    TMP DP  RH WIND       PRES   REMARKS
KINROSS        MOSUNNY   72  51  47 VRB7      30.09F
MACKINAC ISLAN SUNNY     69  55  62 SE6       30.08F
NEWBERRY       MOSUNNY   75  52  43 NE5       30.09F
S. S. MARIE    MOSUNNY   74  52  46 CALM      30.08F
MUNISING         N/A     72  64  76 NE16      30.08S
$$
MIZ004>006-011>014-085-291800-
CENTRAL UPPER MICHIGAN

CITY           SKY/WX    TMP DP  RH WIND       PRES   REMARKS
MANISTIQUE     PTSUNNY   73  59  62 SE8       30.07F
ESCANABA       SUNNY     73  59  60 SE10      30.07S
MENOMINEE      SUNNY    N/A N/A N/A E10       30.06S
SAWYER-GWINN   MOSUNNY   73  55  53 E9        30.10S
$$
MIZ001>003-009>011-084-291800-
WESTERN UPPER MICHIGAN

CITY           SKY/WX    TMP DP  RH WIND       PRES   REMARKS
IRON MOUNTAIN  PTSUNNY   75  57  53 E7        30.06F
HOUGHTON       SUNNY     73  56  54 E7        30.10F
COPPER HARBOR    N/A     70  56  61 E8        30.09F
IRONWOOD       SUNNY     70  55  60 N7        30.07F
$$

ABBREVIATIONS USED IN REMARKS
   TC - TEMPERATURE IN CELSIUS
  WCI - WIND CHILL INDEX
   HX - HEAT INDEX
  VSB - VISIBILITY





USA.gov is the U.S. government's official web portal to all federal, state and local government web resources and services.